IST,Max TemperatureF,Mean TemperatureF,Min TemperatureF,Max Dew PointF,MeanDew PointF,Min DewpointF,Max Humidity, Mean Humidity, Min Humidity, Max Sea Level PressureIn, Mean Sea Level PressureIn, Min Sea Level PressureIn, Max VisibilityMiles, Mean VisibilityMiles, Min VisibilityMiles, Max Wind SpeedMPH, Mean Wind SpeedMPH, Max Gust SpeedMPH,PrecipitationIn, CloudCover, Events, WindDirDegrees
2012-11-1,82,71,60,63,61,59,94,74,45,30.01,29.93,29.89,1,0,0,6,2,,0.00,,Fog,265
2012-11-2,78,70,62,63,61,59,94,78,51,29.98,29.91,29.86,1,0,0,5,1,,0.00,,Fog,280
2012-11-3,82,71,60,63,58,54,94,69,37,29.95,29.89,29.86,1,0,0,5,1,,0.00,,Fog,274
2012-11-4,77,68,60,61,58,55,88,75,50,29.95,29.90,29.86,0,0,0,6,1,,0.00,,Fog,263
2012-11-5,82,70,59,59,57,50,100,72,32,29.98,29.89,29.86,1,0,0,6,1,,0.00,,Fog,261
2012-11-6,78,68,57,61,57,50,94,71,42,29.98,29.92,29.89,1,0,0,5,1,,0.00,,Fog,271
2012-11-7,82,71,60,61,57,50,94,69,32,29.98,29.90,29.83,1,0,0,6,1,,0.00,,Fog,289
2012-11-8,80,70,59,59,55,50,94,64,34,29.92,29.86,29.83,2,1,0,8,2,,0.00,,Fog,275
2012-11-9,86,70,55,55,51,46,94,57,25,29.95,29.88,29.83,2,1,0,8,2,,0.00,,Fog,291
2012-11-10,86,73,60,54,50,46,77,48,27,30.01,29.93,29.89,2,1,1,7,4,,0.00,4,,123
2012-11-11,71,66,60,57,55,52,82,69,53,29.95,29.92,29.89,1,1,1,6,2,,0.00,2,,70
2012-11-12,82,71,60,61,57,54,88,64,37,30.01,29.96,29.92,1,1,0,6,2,,0.00,1,Fog,54
2012-11-13,80,70,59,59,55,48,94,66,32,30.09,30.01,29.98,2,1,0,8,1,,0.00,,Fog,331
2012-11-14,78,66,55,55,52,50,82,64,39,30.01,29.95,29.89,1,1,0,9,2,,0.00,,Fog,271
2012-11-15,80,68,57,55,53,50,88,66,37,30.04,29.97,29.92,1,1,0,6,1,,0.00,,Fog,269
2012-11-16,78,66,55,55,53,50,88,64,36,30.09,30.02,29.98,1,0,0,5,1,,0.00,,Fog,285
2012-11-17,78,66,55,55,52,50,88,65,36,30.06,30.00,29.95,2,1,0,7,2,,0.00,,Fog,279
2012-11-18,80,66,53,63,50,46,82,57,30,30.01,29.95,29.92,2,1,0,7,2,,0.00,,Fog,278
2012-11-19,80,68,55,54,49,41,82,55,24,30.01,29.96,29.92,2,1,1,12,2,,0.00,,Fog,277
2012-11-20,78,66,53,48,45,39,77,50,24,30.06,30.00,29.95,3,2,1,9,4,,0.00,,,268
2012-11-21,77,64,51,48,43,39,71,51,26,30.06,29.99,29.95,3,2,1,8,4,,0.00,2,,257
2012-11-22,75,63,51,46,43,36,72,51,24,30.01,29.93,29.68,2,1,1,9,2,,0.00,2,,272
2012-11-23,77,64,51,46,43,37,82,52,24,30.01,29.93,29.89,2,1,0,7,2,,0.00,1,Fog,328
2012-11-24,78,66,53,50,45,41,72,50,26,30.01,29.94,29.89,2,1,1,8,2,,0.00,1,,114
2012-11-25,77,64,51,50,46,39,94,57,26,30.01,29.96,29.92,2,1,0,10,2,,0.00,1,Fog,273
2012-11-26,75,63,51,48,44,37,82,57,25,30.06,29.99,29.95,2,1,1,10,3,,0.00,,,258
2012-11-27,75,62,48,45,42,37,82,53,25,30.04,29.96,29.89,3,2,1,12,2,,0.00,,,270
2012-11-28,75,62,50,45,42,39,71,49,27,30.01,29.94,29.89,3,2,1,9,3,,0.00,,,253
2012-11-29,80,68,55,55,46,41,82,54,24,29.92,29.89,29.83,2,1,1,12,2,,0.00,6,Rain-Thunderstorm,89
2012-11-30,69,60,51,55,53,50,94,78,49,30.04,29.97,29.92,1,1,1,10,5,,0.00,1,,269